Location: Bratislava
(0.0000°N, 17.1167°E)
Time: 04:50:48
(UTC+01:00)

Cosmos 1655 Rocket - Pass Details

Date: 24 January 2021
Orbit: 971 x 1005 km, 83.0° (Epoch: 06 March)

Event Time Altitude Azimuth Distance (km) Brightness Sun altitude
Rises 18:38:29 0° 172° (S) 3,702 7.2 -8.2°
Reaches altitude 10° 18:41:07 10° 167° (SSE) 2,746 6.4 -8.8°
Maximum altitude 18:47:09 49° 93° (E) 1,248 4.2 -10.3°
Drops below altitude 10° 18:53:06 10° 20° (NNE) 2,715 6.0 -11.7°
Sets 18:55:41 0° 15° (NNE) 3,656 6.7 -12.3°
